Flag for U.S.A. Weather past 2 weeks in Fairbanks, Alaska, U.S.A.

Now
52 °F

Partly sunny.


Feels Like: 50 °F
Forecast: 51 / 60 °F
Wind: 6 mph from South

Location: Wainwright U. S. Army Airfield

Current Time: Aug 27, 2014 at 11:05:22 AM

Latest Report: Aug 27, 2014 at 9:55 AM


Visibility: 25 mi

Pressure: 29.84 "Hg

Humidity: 88%

Dew point: 48 °F

Location of FairbanksLocation

Historic Weather in Fairbanks — Graph

°F

Fairbanks temperature yesterday

Maximum temperature yesterday: 63 °F (at 4:55 PM)
Minimum temperature yesterday: 51 °F (at 5:56 AM)
Average temperature yesterday: 56 °F

Past Weeks' High & Low Weather Summary

 TemperatureHumidityPressure
High77 °F (Aug 13, 4:55 PM)96% (Aug 18, 3:56 AM)30.24 "Hg (Aug 18, 3:56 AM)
Low39 °F (Aug 22, 4:56 AM)30% (Aug 14, 5:55 PM)29.50 "Hg (Aug 15, 5:56 AM)
Average58 °F70%29.82 "Hg
* Reported Aug 12 8:55 AM — Aug 27 8:59 AM, Fairbanks, Weather by CustomWeather, © 2014

Note: Actual official high and low records may vary slightly from our data, if they occured in-between our weather recording intervals... More about our weather records

Advertising

Fairbanks weather history for previous 24 hours

 ConditionsComfort  
Time TempWeatherWind HumidityBarometerVisibility
8:59 AM
Aug 27
52 °FPartly sunny.7 mph88%29.84 "Hg25 mi
7:55 AM52 °FCloudy.8 mph88%29.84 "Hg13 mi
6:55 AM52 °FScattered showers. Overcast.6 mph88%29.84 "Hg13 mi
5:56 AM52 °FLow clouds.6 mph89%29.85 "Hg10 mi
4:56 AM52 °FOvercast.8 mph89%29.85 "Hg10 mi
3:56 AM53 °FMostly cloudy.12 mph89%29.83 "Hg10 mi
2:56 AM53 °FPartly cloudy.14 mph89%29.83 "Hg10 mi
1:56 AM54 °FMostly cloudy.12 mph83%29.82 "Hg10 mi
12:56 AM54 °FLight rain. Overcast.No wind90%29.82 "Hg10 mi
11:56 PM
Aug 26
54 °FRain. Mostly cloudy.6 mph90%29.82 "Hg7 mi
10:56 PM54 °FLight rain. Mostly cloudy.7 mph90%29.83 "Hg10 mi
9:56 PM57 °FLight rain. Mostly cloudy.10 mph69%29.81 "Hg10 mi
8:56 PM60 °FPassing clouds.7 mph67%29.80 "Hg10 mi
7:56 PM61 °FSunny.10 mph67%29.79 "Hg10 mi
7:55 PM61 °FPartly sunny.9 mph68%29.79 "Hg13 mi
6:55 PM63 °FBroken clouds.5 mph56%29.78 "Hg13 mi
5:55 PM63 °FBroken clouds.8 mph56%29.78 "Hg13 mi
4:55 PM63 °FPartly sunny.5 mph56%29.78 "Hg13 mi
3:55 PM61 °FPartly sunny.8 mph59%29.78 "Hg13 mi
2:55 PM59 °FPartly sunny.7 mph63%29.79 "Hg13 mi
1:55 PM59 °FPartly sunny.9 mph63%29.79 "Hg25 mi
12:55 PM57 °FPartly sunny.13 mph72%29.79 "Hg25 mi
11:55 AM55 °FPartly sunny.9 mph77%29.78 "Hg25 mi
Weather by CustomWeather, © 2014

See weather overviewHow to use our weather pages